Volver al catálogo

COSMOS 2132

ActivoNavegaciónLEO
NORAD 21107·PAYLOAD·🇷🇺 Russia

Lanzado Feb 12, 1991 desde Plesetsk Cosmodrome

Loading…

Próximos Pases (próximas 24 horas)

TLE

ActualizadoSource: Space-Track

Época: Sep 14, 2026, 14:58 UTC

1 21107U 91009H   26257.62407108 -.00000018  00000-0 -12432-4 0  9997
2 21107  74.0330  22.7898 0033828 166.6888 206.3265 12.55503553631023

Sigue COSMOS 2132 en tiempo real con AllMySat

Download on the App Store